Terug naar catalogus

KANOPUS-V-IK

ActiefWetenschapSSO
NORAD 42825·PAYLOAD·🇷🇺 Russia

Gelanceerd Jul 14, 2017 vanaf Baikonur Cosmodrome

Loading…

Volgende Passages (komende 24 uur)

TLE

VersSource: Space-Track

Epoch: Sep 14, 2026, 22:15 UTC

1 42825U 17042A   26257.92716751  .00001748  00000-0  78602-4 0  9992
2 42825  97.3472 161.5441 0001861  88.3987 271.7463 15.22417108509023

Volg KANOPUS-V-IK in realtime met AllMySat

Download on the App Store